Regional Weather Roundup
Issued by NWS

Home | Current Version | Previous Version | Graphics & Text | Print | Product List | Glossary On
Versions: 1 2 3 4 5 6 7 8 9 10 11 12 13 14 15 16 17 18 19 20 21 22 23 24 25 26 27 28 29 30 31 32 33 34 35 36 37 38 39 40 41 42 43 44 45 46 47 48 49 50
000
ASUS43 KMPX 291510
RWRMN
WEATHER ROUNDUP FOR MINNESOTA
NATIONAL WEATHER SERVICE TWIN CITIES/CHANHASSEN MN
1000 AM CDT FRI JUL 29 2016


NOTE: "FAIR" INDICATES FEW OR NO CLOUDS BELOW 12,000 FEET WITH NO
SIGNIFICANT WEATHER AND/OR OBSTRUCTIONS TO VISIBILITY. N/A MEANS
CURRENT SKY AND/OR WEATHER CONDITIONS ARE NOT AVAILABLE.

MNZ060>063-068>070-291600-
   Twin Cities Metro

CITY           SKY/WX    TMP DP  RH WIND       PRES   REMARKS
TWIN CITIES    MOSUNNY   69  55  60 VRB7      30.08R
ST PAUL        PTSUNNY   68  55  63 E5        30.08S
CRYSTAL        SUNNY     69  53  56 VRB5      30.07S
BLAINE         MOSUNNY   70  57  64 NE5       30.08S
LAKEVILLE      SUNNY     68  61  77 NE7       30.07S
EDEN PRAIRIE   SUNNY     71  56  58 E6        30.07S
LAKEVILLE      SUNNY     68  61  77 NE7       30.07S
SOUTH ST PAUL  PTSUNNY   71  52  50 E7        30.07S
LAKE ELMO      FAIR      68  55  64 E6        30.09S
$$
MNZ001>005-007-008-013>017-022>024-027-028-291600-
   Northwest Minnesota

CITY           SKY/WX    TMP DP  RH WIND       PRES   REMARKS
BEMIDJI        SUNNY     70  59  68 CALM      30.09F
HALLOCK        SUNNY     68  61  77 NW6       30.09S
ROSEAU         SUNNY     70  63  78 CALM      30.09S
WARROAD        SUNNY     70  64  83 NE6       30.09S
THIEF RVR FALL SUNNY     71  57  61 CALM      30.10S
CROOKSTON      SUNNY     66  59  77 CALM      30.10S
FOSSTON        SUNNY     70  57  64 CALM      30.10S
DETROIT LAKES  MOSUNNY   70  63  78 CALM      30.11S
MOORHEAD       SUNNY     70  61  73 CALM      30.09S
PARK RAPIDS    MOSUNNY   70  59  68 S7        30.10S
MAHNOMEN       FAIR      71  59  65 SE3       30.09S
$$
MNZ006-009>011-018-025>026-291600-
   North Central Minnesota

CITY           SKY/WX    TMP DP  RH WIND       PRES   REMARKS
BAUDETTE       SUNNY     71  59  65 E3        30.08F
FLAG ISLAND    SUNNY     70  57  64 N3        30.08S
INTL FALLS     SUNNY     69  57  65 SE6       30.09F
WASKISH        SUNNY     72  61  68 E3        30.08F
BIG FORK       SUNNY     72  54  53 S6        30.10F
LONGVILLE      PTSUNNY   70  54  56 SE5       30.10F
GRAND RAPIDS   MOSUNNY   68  53  58 S7        30.13S
ORR            SUNNY     68  52  56 CALM      30.09S
COOK           SUNNY     68  54  60 SE3       30.12F
WALKER         FAIR      69  58  67 S6        30.10R
$$
MNZ012-019>021-037-291600-
   Northeast Minnesota

CITY           SKY/WX    TMP DP  RH WIND       PRES   REMARKS
DULUTH         SUNNY     68  52  56 SE12      30.12S
ELY            SUNNY     70  50  49 CALM      30.12F
HIBBING        MOSUNNY   68  53  58 SE7       30.12S
EVELETH        SUNNY     71  51  48 SE3       30.13S
DULUTH HARBOR  SUNNY     63  57  82 NE3       30.12S
TWO HARBORS    SUNNY     73  57  56 E6        30.10F
SILVER BAY     SUNNY     72  52  49 E3        30.11S
GRAND MARAIS     N/A     67  54  63 E3        30.12R
G MARAIS ARPRT SUNNY     68  46  45 E5        30.15S
$$
MNZ029>031-032-039>041-046>048-054>057-064-291600-
   West Central Minnesota

CITY           SKY/WX    TMP DP  RH WIND       PRES   REMARKS
FERGUS FALLS   PTSUNNY  N/A N/A N/A SE5       30.10S
WHEATON        SUNNY     72  66  83 CALM      30.11R
MORRIS         SUNNY     73  59  60 SE3       30.09S
ALEXANDRIA     SUNNY     70  56  61 E6        30.12S
ELBOW LAKE     FAIR      71  61  71 SE5       30.10F
WADENA         SUNNY     70  55  60 CALM      30.10
GLENWOOD       MOSUNNY   70  55  60 NE6       30.12S
APPLETON       SUNNY     72  55  56 E3        30.10R
BENSON         SUNNY     70  55  60 E3        30.10S
ORTONVILLE     MOSUNNY   72  57  60 S3        30.10S
MADISON        SUNNY     70  59  68 CALM      30.10S
WILLMAR        FAIR      70  61  73 CALM      30.11S
$$
MNZ033>034-036-042>043-049>051-058-059-291600-
   Central Minnesota

CITY           SKY/WX    TMP DP  RH WIND       PRES   REMARKS
ST CLOUD       SUNNY     68  57  68 VRB5      30.10S
SAUK CENTRE    FAIR      68  55  62 CALM      30.11S
PAYNESVILLE    SUNNY     67  57  69 NE3       30.11S
AITKIN         MOSUNNY   72  52  49 E3        30.10S
PINE RIVER     MOSUNNY   70  57  64 SE5       30.14S
BRAINERD       SUNNY     70  54  56 CALM      30.11S
STAPLES        PTSUNNY   70  52  52 SE3       30.10F
LONG PRAIRIE   FAIR      68  52  56 CALM      30.12R
LITTLE FALLS   SUNNY     68  52  56 E5        30.11S
LITCHFIELD     SUNNY     70  63  78 NE5       30.10S
BUFFALO        SUNNY     67  55  64 NE6       30.11S
MAPLE LAKE     SUNNY     69  60  73 N3        30.11R
HUTCHINSON     SUNNY     70  60  68 N5        30.11R
$$
MNZ037-044-045-052-053-291600-
   East Central Minnesota

CITY           SKY/WX    TMP DP  RH WIND       PRES   REMARKS
PRINCETON      SUNNY     68  55  64 NE8       30.10S
MORA           SUNNY     64  54  68 NE3       30.12S
CAMBRIDGE      SUNNY     68  54  60 NE5       30.08S
RUSH CITY      SUNNY     66  55  68 NE5       30.10S
MOOSE LAKE     SUNNY     64  52  63 NE6       30.09S
HINCKLEY       FAIR      68  55  64 E5        30.10S
CLOQUET        SUNNY     66  50  55 E9        30.11F
MCGREGOR       SUNNY     68  54  60 E3        30.12S
$$
MNZ071>073-080-081-089-090-097-098-291600-
   Southwest Minnesota

CITY           SKY/WX    TMP DP  RH WIND       PRES   REMARKS
MONTEVIDEO     SUNNY     73  61  64 CALM      30.12R
GRANITE FALLS  SUNNY     71  59  66 NE6       30.11S
CANBY          SUNNY     70  60  70 CALM      30.12S
MARSHALL       SUNNY     67  58  72 E3        30.11R
REDWOOD FALLS  SUNNY     69  57  65 VRB5      30.09S
OLIVIA         SUNNY     70  59  68 CALM      30.09R
PIPESTONE      SUNNY     68  57  68 E6        30.11R
WINDOM         SUNNY     70  59  68 N3        30.10R
WORTHINGTON    SUNNY     68  61  78 NE8       30.11R
JACKSON        CLOUDY    66  59  77 CALM      30.10S
TRACY          SUNNY     68  59  74 CALM      30.11S
SLAYTON        SUNNY     67  58  74 N5        30.13R
$$
MNZ065>067-074>077-082>085-091>093-291600-
   South Central Minnesota

CITY           SKY/WX    TMP DP  RH WIND       PRES   REMARKS
MANKATO        MOSUNNY   68  57  68 N8        30.08R
NEW ULM        SUNNY     68  59  73 NE7       30.08S
ST JAMES       CLOUDY    64  57  77 CALM      30.09R
FAIRMONT       CLOUDY    66  57  72 N7        30.07R
GLENCOE        SUNNY     69  60  73 NE6       30.09S
FARIBAULT      CLOUDY    68  61  77 N5        30.08R
OWATONNA       MOSUNNY   68  61  77 NE5       30.07S
WASECA         CLOUDY    64  59  82 N5        30.08S
ALBERT LEA     CLOUDY    66  63  88 N6        30.06S
$$
MNZ078>079-086>088-094>096-291600-
   Southeast Minnesota

CITY           SKY/WX    TMP DP  RH WIND       PRES   REMARKS
ROCHESTER      CLOUDY    66  60  81 NE9       30.06S
RED WING       CLOUDY    70  55  60 E6        30.05S
STANTON        MOSUNNY   70  61  73 NE6       30.06S
DODGE CENTER   CLOUDY   N/A N/A N/A NE7       30.06S
WINONA         CLOUDY    70  59  68 N6        30.04F
AUSTIN         CLOUDY    66  59  77 NE7       30.04S
PRESTON        CLOUDY    63  59  85 N9        30.04F
$$
ABBREVIATIONS USED IN REMARKS
   TC - TEMPERATURES IN CELSIUS
  WCI - WIND CHILL INDEX
   HX - HEAT INDEX
  VSB - VISIBILITY
$$




USA.gov is the U.S. government's official web portal to all federal, state and local government web resources and services.